Location: Bratsk-Energetik
(56.3300°N, 101.7600°E)
Time: 05:26:53
(UTC+08:00)

ISS - Pass Details

Date: 14 July 2018
Orbit: 402 x 408 km, 51.6° (Epoch: 16 July)

Event Time Altitude Azimuth Distance (km) Brightness Sun altitude
Exits shadow 02:29:50 17° 201° (SSW) 1,126 -2.2 -10.5°
Maximum altitude 02:31:26 24° 160° (SSE) 892 -2.5 -10.4°
Drops below altitude 10° 02:34:10 10° 104° (ESE) 1,471 -0.9 -10.3°
Sets 02:36:29 0° 90° (E) 2,335 0.3 -10.2°
